Location: Camerons Lookout
(40.9833°S, 175.9333°E)
Time: 19:21:23
(UTC+00:00)

Cosmos 1441 Rocket - Pass Details

Date: 14 January 2026
Orbit: 417 x 442 km, 81.1° (Epoch: 15 February)

Event Time Altitude Azimuth Distance (km) Brightness Sun altitude
Rises 08:41:33 0° 191° (S) 2,435 7.5 -9.0°
Maximum altitude 08:47:01 84° 277° (W) 449 2.9 -9.8°
Drops below altitude 10° 08:50:25 10° 6° (N) 1,553 5.2 -10.3°
Enters shadow 08:50:47 - 7° (N) 1,709 5.4 -10.3°
